[TLELIST] Archives

 

Current TLEs

July 14th 2007 PDT

HST 1 20580U 90037B 07194.55136956 .00000295 00000-0 10044-4 0 9152 2 20580 028.4681 018.2075 0003306 015.6597 344.4093 15.00259153743927 ISS (ZARYA) 1 25544U 98067A 07195.47893301 .00020227 00000-0 11462-3 0 5814 2 25544 051.6334 322.8011 0008844 065.1175 049.7640 15.79017118495086 CXO 1 25867U 99040B 07194.08333333 .00000133 00000-0 00000+0 0 905 2 25867 062.0218 088.7220 6265190 283.7005 355.8878 00.37797573 2352 ____________________________________________________________________ These 2-Line ...Continue Reading

Current TLEs

July 13th 2007 PDT

HST 1 20580U 90037B 07192.88825760 .00000328 00000-0 12580-4 0 9147 2 20580 028.4680 029.0503 0003305 357.8300 002.2278 15.00258938743670 ISS (ZARYA) 1 25544U 98067A 07194.46060008 .00018499 00000-0 10541-3 0 5749 2 25544 051.6339 328.0697 0008703 061.8461 020.5054 15.78968628494922 CXO 1 25867U 99040B 07194.08333333 .00000133 00000-0 00000+0 0 905 2 25867 062.0218 088.7220 6265190 283.7005 355.8878 00.37797573 2352 ____________________________________________________________________ These 2-Line ...Continue Reading

Current TLEs

July 12th 2007 PDT

HST 1 20580U 90037B 07192.88825760 .00000328 00000-0 12580-4 0 9147 2 20580 028.4680 029.0503 0003305 357.8300 002.2278 15.00258938743670 ISS (ZARYA) 1 25544U 98067A 07193.50460462 .00015534 00000-0 89361-4 0 5677 2 25544 051.6336 333.0153 0008681 059.0607 345.4675 15.78917610494774 CXO 1 25867U 99040B 07194.08333333 .00000133 00000-0 00000+0 0 905 2 25867 062.0218 088.7220 6265190 283.7005 355.8878 00.37797573 2352 ____________________________________________________________________ These 2-Line ...Continue Reading

Current TLEs

July 11th 2007 PDT

HST 1 20580U 90037B 07190.95904771 +.00000310 +00000-0 +11212-4 0 09145 2 20580 028.4680 041.6295 0003328 336.1697 023.8737 15.00258226743389 ISS (ZARYA) 1 25544U 98067A 07192.49195645 .00015623 00000-0 89992-4 0 5604 2 25544 051.6347 338.2525 0008503 056.7315 347.9594 15.78884600494611 CXO 1 25867U 99040B 07191.45833333 .00000212 00000-0 00000+0 0 894 2 25867 062.0029 088.7904 6264808 283.7585 358.4814 00.37803532 2340 ____________________________________________________________________ These 2-Line ...Continue Reading

Current TLEs

July 10th 2007 PDT

HST 1 20580U 90037B 07190.89252327 .00000303 00000-0 10675-4 0 9134 2 20580 028.4680 042.0631 0003335 335.2078 024.8352 15.00258153743371 ISS (ZARYA) 1 25544U 98067A 07191.48450382 .00016220 00000-0 93397-4 0 5545 2 25544 051.6346 343.4641 0008629 053.3507 021.1809 15.78854510494451 CXO 1 25867U 99040B 07191.45833333 .00000212 00000-0 00000+0 0 894 2 25867 062.0029 088.7904 6264808 283.7585 358.4814 00.37803532 2340 ____________________________________________________________________ These 2-Line ...Continue Reading

Current TLEs

July 9th 2007 PDT

HST 1 20580U 90037B 07188.96331270 +.00000300 +00000-0 +10396-4 0 09197 2 20580 028.4679 054.6438 0003419 312.2120 047.8178 15.00257517743081 ISS (ZARYA) 1 25544U 98067A 07190.46594248 .00016652 00000-0 95918-4 0 5463 2 25544 051.6362 348.7311 0008563 050.9068 350.3982 15.78822110494295 CXO 1 25867U 99040B 07188.79166667 .00000340 00000-0 00000+0 0 876 2 25867 061.9807 088.8777 6263452 283.7648 355.5084 00.37808119 2337 ____________________________________________________________________ These 2-Line ...Continue Reading

Current TLEs

July 8th 2007 PDT

HST 1 20580U 90037B 07189.02983720 .00000308 00000-0 11031-4 0 9126 2 20580 028.4679 054.2100 0003405 313.2098 046.8207 15.00257599743096 ISS (ZARYA) 1 25544U 98067A 07189.46225795 .00017699 00000-0 10184-3 0 5406 2 25544 051.6369 353.9232 0008447 048.4367 044.3794 15.78791888494138 CXO 1 25867U 99040B 07188.79166667 .00000340 00000-0 00000+0 0 876 2 25867 061.9807 088.8777 6263452 283.7648 355.5084 00.37808119 2337 ____________________________________________________________________ These 2-Line ...Continue Reading

Current TLEs

July 7th 2007 PDT

HST 1 20580U 90037B 07187.89892078 .00000294 00000-0 99134-5 0 9118 2 20580 028.4679 061.5842 0003460 300.7800 059.2448 15.00257169742922 ISS (ZARYA) 1 25544U 98067A 07188.45137788 .00018340 00000-0 10554-3 0 5346 2 25544 051.6377 359.1525 0008320 045.7918 057.7228 15.78757867493972 CXO 1 25867U 99040B 07188.79166667 .00000340 00000-0 00000+0 0 876 2 25867 061.9807 088.8777 6263452 283.7648 355.5084 00.37808119 2337 ____________________________________________________________________ These 2-Line ...Continue Reading

Current TLEs

July 6th 2007 PDT

HST 1 20580U 90037B 07185.96971040 +.00000259 +00000-0 +72073-5 0 09227 2 20580 028.4681 074.1658 0003630 278.0038 082.0140 15.00256368742630 ISS (ZARYA) 1 25544U 98067A 07187.50058645 .00018403 00000-0 10605-3 0 5285 2 25544 051.6367 004.0716 0008501 039.5993 056.4659 15.78722367493829 CXO 1 25867U 99040B 07186.16666667 .00000398 00000-0 00000+0 0 862 2 25867 061.9615 088.9463 6259889 283.7615 358.2512 00.37807559 2322 ____________________________________________________________________ These 2-Line ...Continue Reading

Current TLEs

July 5th 2007 PDT

HST 1 20580U 90037B 07186.10275887 .00000328 00000-0 12609-4 0 9102 2 20580 028.4678 073.2955 0003535 281.1616 078.8575 15.00256871742653 ISS (ZARYA) 1 25544U 98067A 07186.35683872 .00015382 00000-0 89513-4 0 5214 2 25544 051.6363 009.9848 0008601 036.6139 034.7436 15.78669412493649 CXO 1 25867U 99040B 07186.16666667 .00000398 00000-0 00000+0 0 862 2 25867 061.9615 088.9463 6259889 283.7615 358.2512 00.37807559 2322 ____________________________________________________________________ These 2-Line ...Continue Reading
  • This mailing list is a public mailing list - anyone may join or leave, at any time.
  • This mailing list is announce-only.

International Space Station (ISS) / Hubble Space Telescope (HST) / Chandra X-Ray Observatory Orbital Data via EMAIL

Privacy Policy:

Private list